[[{"header":{"parameterUnit":"m.s-1","parameterCategory":1,"la1":30.2991,"la2":30.254,"lo1":-89.0895,"lo2":-89.0444,"dy":0.0017,"dx":0.0017,"nx":28,"ny":28,"refTime":"2023-10-27T03:00:00:Z","depth":0,"parameterNumber":2,"parameterNumberName":"U-component_of_WINDS"},"data":[0,0,0,0,0,0,0,0,0,0,0,0,0,0,0,0,0,0,0,0,0,0,0,0,0,0,0,0,0,0,0,0,0,0,0,0,0,0,0,0,0,0,0,0,0,0,0,0,0,0,0,0,0,0,0,0,0,0,-2.5962,-2.5962,0,-2.5948,-2.5948,-2.5947,-2.5858,-2.5856,-2.5854,-2.5852,-2.5839,-2.584,-2.5842,0,0,0,0,0,0,0,0,0,0,0,0,0,-2.5913,-2.5914,-2.5962,-2.5962,-2.5961,-2.5948,-2.5948,-2.5947,-2.5858,-2.5856,-2.5853,-2.5851,-2.5838,-2.584,-2.5842,0,0,0,0,0,0,0,0,0,0,0,0,0,-2.592,-2.5914,-2.5962,-2.5915,-2.5911,-2.5948,-2.5948,-2.5947,-2.5859,-2.5856,-2.5852,-2.5849,-2.5838,-2.584,-2.5842,-2.5923,0,0,-2.585,-2.5851,0,0,0,0,0,0,0,0,-2.592,-2.5922,-2.5922,-2.5919,-2.5914,-2.5901,-2.5925,-2.5939,-2.586,-2.5879,-2.5851,-2.5848,-2.5862,-2.5863,-2.5867,-2.5923,-2.5922,-2.585,-2.5852,-2.5853,-2.5854,0,0,0,0,0,0,0,-2.5919,-2.5922,-2.5956,-2.5922,-2.5917,-2.5896,-2.5893,-2.5928,-2.5889,-2.5877,-2.587,-2.587,-2.5859,-2.5865,-2.5866,-2.5922,-2.585,-2.5853,-2.5854,-2.5855,-2.6043,-2.6047,0,0,0,0,0,0,-2.5925,-2.5922,-2.5957,-2.5956,-2.5909,-2.5899,-2.5896,-2.5909,-2.5888,-2.5882,-2.5873,-2.5866,-2.5862,-2.5863,-2.5865,-2.5959,-2.5853,-2.5855,-2.5857,-2.604,-2.6044,-2.6048,0,0,0,0,0,0,-2.5924,-2.5929,-2.5957,-2.5937,-2.5939,-2.5903,-2.5918,-2.591,-2.5915,-2.5885,-2.5878,-2.5885,-2.586,-2.5862,-2.5909,-2.5957,-2.5857,-2.5859,-2.6036,-2.6041,-2.6046,-2.6146,0,0,0,0,0,0,-2.5923,-2.5929,-2.5959,-2.5939,-2.5941,-2.6002,-2.5921,-2.5912,-2.592,-2.5911,-2.5895,-2.5889,-2.5857,-2.5906,-2.5912,-2.5959,-2.5861,-2.6031,-2.6038,-2.6044,-2.6138,-2.6154,-2.6168,0,0,0,0,0,-2.5922,-2.5988,-2.5961,-2.5966,-2.5977,-2.6004,-2.6006,-2.5967,-2.5924,-2.5954,-2.5935,-2.589,-2.5951,-2.5912,-2.5918,-2.5966,-2.6028,-2.6036,-2.6044,-2.6132,-2.6151,-2.6167,0,0,0,0,0,0,-2.6016,-2.5985,-2.5954,-2.6016,-2.6014,-2.5989,-2.6026,-2.5988,-2.5998,-2.5989,-2.5941,-2.5938,-2.5993,-2.5984,-2.5941,-2.6043,-2.5982,-2.5991,-2.6047,-2.6065,-2.6079,-2.608,-2.5863,0,0,0,0,0,-2.6044,-2.6068,-2.604,-2.6097,-2.6097,-2.6062,-2.6072,-2.6043,-2.6038,-2.6037,-2.6021,-2.6019,-2.6037,-2.605,-2.6066,-2.6137,-2.6132,-2.6173,-2.6187,-2.6199,-2.6208,-2.6245,-2.6263,-2.6074,-2.6074,-2.6073,0,0,-2.6102,-2.6088,-2.6106,-2.6115,-2.611,-2.6136,-2.6062,-2.6093,-2.6112,-2.6042,-2.6085,-2.6074,-2.6068,-2.6128,-2.6154,-2.6122,-2.6259,-2.6209,-2.6219,-2.6221,-2.6255,-2.6273,-2.6289,-2.6079,-2.6078,-2.6077,0,0,-2.6221,-2.6213,-2.6259,-2.6256,-2.6248,-2.6224,-2.6236,-2.6217,-2.6207,-2.625,-2.6197,-2.622,-2.6253,-2.6251,-2.6255,-2.6374,-2.6333,-2.638,-2.6456,-2.6493,-2.6508,-2.652,-2.6563,-2.6579,-2.6389,-2.6389,-2.6389,0,-2.6294,-2.6331,-2.6288,-2.6323,-2.6329,-2.6266,-2.6313,-2.6311,-2.631,-2.6315,-2.628,-2.632,-2.6312,-2.637,-2.64,-2.6404,-2.6416,-2.6381,-2.6509,-2.6521,-2.6533,-2.6573,-2.6589,-2.6395,-2.6394,-2.6394,-2.6393,0,-2.6422,-2.6449,-2.6487,-2.6487,-2.6497,-2.6538,-2.6501,-2.6517,-2.6486,-2.6467,-2.6512,-2.65,-2.6512,-2.6523,-2.6494,-2.6578,-2.6559,-2.6517,-2.6455,-2.6557,-2.6594,-2.6609,-2.6403,-2.6401,-2.6399,-2.6398,0,0,-2.66,-2.6575,-2.6589,-2.6588,-2.6576,-2.6596,-2.6634,-2.6645,-2.6659,-2.6661,-2.6692,-2.6721,-2.6683,-2.6687,-2.6657,-2.6689,-2.6784,-2.6643,-2.6642,-2.667,-2.6876,-2.6907,-2.6925,-2.6757,-2.676,-2.6762,-2.6876,0,-2.6714,-2.6777,-2.6739,-2.6808,-2.6832,-2.6773,-2.6806,-2.6803,-2.6785,-2.6804,-2.6785,-2.6806,-2.6754,-2.6756,-2.6785,-2.6766,-2.6825,-2.6758,-2.6786,-2.6787,-2.6789,-2.6944,-2.6977,-2.7086,-2.689,-2.6893,-2.6894,0,-2.6855,-2.6862,-2.6933,-2.6915,-2.6924,-2.6955,-2.6962,-2.698,-2.6975,-2.696,-2.6965,-2.6927,-2.6964,-2.6903,-2.6953,-2.6908,-2.6918,-2.6911,-2.6914,-2.6915,-2.6847,-2.695,-2.7119,-2.7135,-2.6916,-2.6915,-2.6913,0,-2.6977,-2.7004,-2.705,-2.7051,-2.7032,-2.7055,-2.7048,-2.7039,-2.7049,-2.7055,-2.7061,-2.7072,-2.7079,-2.7088,-2.7055,-2.7014,-2.711,-2.7046,-2.7099,-2.71,-2.7121,-2.712,-2.7295,-2.7128,-2.7128,-2.7128,-2.7127,0,-2.7108,-2.7154,-2.7105,-2.7133,-2.7183,-2.714,-2.719,-2.7177,-2.717,-2.7195,-2.7145,-2.717,-2.7125,-2.7145,-2.7119,-2.7165,-2.7168,-2.7158,-2.715,-2.7162,-2.7163,-2.7167,-2.7159,-2.7132,-2.7131,-2.713,-2.713,0,-2.7253,-2.7222,-2.7268,-2.7246,-2.7242,-2.728,-2.7261,-2.7287,-2.7266,-2.7298,-2.7304,-2.7272,-2.7293,-2.7261,-2.7279,-2.7262,-2.7325,-2.7306,-2.7326,-2.7321,-2.7375,-2.7371,-2.7558,-2.7581,-2.74,-2.7402,-2.7403,0,-2.7339,-2.7372,-2.7354,-2.7367,-2.7363,-2.7385,-2.7394,-2.7353,-2.7364,-2.7361,-2.7387,-2.7404,-2.7416,-2.7453,-2.7432,-2.7445,-2.7427,-2.7491,-2.7428,-2.7439,-2.7427,-2.7426,-2.7429,-2.7504,-2.7506,-2.7508,-2.751,0,-2.7494,-2.7477,-2.7491,-2.7501,-2.7513,-2.7519,-2.7521,-2.7534,-2.7491,-2.7507,-2.7528,-2.7537,-2.7555,-2.7573,-2.7581,-2.7575,-2.7536,-2.753,-2.7543,-2.7555,-2.7565,-2.756,-2.7361,-2.7526,-2.7524,-2.7523,-2.7522,-2.7521,-2.7611,-2.7639,-2.763,-2.7648,-2.7645,-2.7648,-2.7671,-2.7653,-2.767,-2.7681,-2.7656,-2.7684,-2.7678,-2.7685,-2.7683,-2.7704,-2.7675,-2.7694,-2.7699,-2.7704,-2.7713,-2.7562,-2.7705,-2.7705,-2.7704,-2.7704,-2.7703,0,-2.7764,-2.7755,-2.7772,-2.7776,-2.7791,-2.7752,-2.7752,-2.7767,-2.7792,-2.7789,-2.7801,-2.7826,-2.7843,-2.7823,-2.7837,-2.7858,-2.784,-2.7863,-2.7861,-2.786,-2.7737,-2.7725,-2.7877,-2.7877,-2.7877,-2.7877,-2.7877,-2.7877,-2.7845,-2.7889,-2.7871,-2.7913,-2.7904,-2.793,-2.7934,-2.7937,-2.7934,-2.7964,-2.7977,-2.7964,-2.7955,-2.7968,-2.7982,-2.7976,-2.7983,-2.8012,-2.8,-2.7885,-2.7868,-2.7852,-2.784,-2.8014,-2.8014,-2.812,-2.8121,-2.8122]},{"header":{"parameterUnit":"m.s-1","parameterCategory":1,"la1":30.2991,"la2":30.254,"lo1":-89.0895,"lo2":-89.0444,"dy":0.0017,"dx":0.0017,"nx":28,"ny":28,"refTime":"2023-10-27T03:00:00:Z","depth":0,"parameterNumber":3,"parameterNumberName":"V-component_of_WINDS"},"data":[0,0,0,0,0,0,0,0,0,0,0,0,0,0,0,0,0,0,0,0,0,0,0,0,0,0,0,0,0,0,0,0,0,0,0,0,0,0,0,0,0,0,0,0,0,0,0,0,0,0,0,0,0,0,0,0,0,0,-0.5161,-0.5162,0,-0.519,-0.519,-0.519,-0.5206,-0.5206,-0.5206,-0.5206,-0.5235,-0.5235,-0.5236,0,0,0,0,0,0,0,0,0,0,0,0,0,-0.5119,-0.512,-0.5161,-0.5162,-0.5162,-0.519,-0.519,-0.519,-0.5206,-0.5206,-0.5206,-0.5206,-0.5234,-0.5235,-0.5236,0,0,0,0,0,0,0,0,0,0,0,0,0,-0.5141,-0.512,-0.5161,-0.5173,-0.5175,-0.519,-0.519,-0.5191,-0.5206,-0.5206,-0.5206,-0.5206,-0.5234,-0.5235,-0.5236,-0.5241,0,0,-0.5239,-0.524,0,0,0,0,0,0,0,0,-0.514,-0.5143,-0.5171,-0.5173,-0.5174,-0.5195,-0.5186,-0.5208,-0.5206,-0.5194,-0.5206,-0.5206,-0.5221,-0.5223,-0.5228,-0.5243,-0.5244,-0.5239,-0.524,-0.5241,-0.5241,0,0,0,0,0,0,0,-0.5139,-0.5142,-0.5173,-0.5172,-0.5173,-0.5177,-0.518,-0.519,-0.5207,-0.5195,-0.5196,-0.52,-0.5222,-0.5227,-0.5229,-0.5244,-0.5239,-0.524,-0.5241,-0.5241,-0.5262,-0.5262,0,0,0,0,0,0,-0.5135,-0.514,-0.5172,-0.5173,-0.5157,-0.5177,-0.5181,-0.5188,-0.5207,-0.521,-0.52,-0.52,-0.5225,-0.5228,-0.523,-0.5236,-0.5241,-0.5242,-0.5242,-0.5262,-0.5262,-0.5262,0,0,0,0,0,0,-0.5134,-0.5138,-0.5171,-0.5157,-0.5162,-0.5178,-0.5186,-0.5188,-0.5194,-0.521,-0.5213,-0.5202,-0.5226,-0.5229,-0.5238,-0.5237,-0.5242,-0.5243,-0.5262,-0.5262,-0.5262,-0.5249,0,0,0,0,0,0,-0.5133,-0.5137,-0.514,-0.5157,-0.5162,-0.5178,-0.5186,-0.5189,-0.5196,-0.5197,-0.5213,-0.5216,-0.5226,-0.5236,-0.5239,-0.5239,-0.5244,-0.5262,-0.5262,-0.5262,-0.5249,-0.5248,-0.5247,0,0,0,0,0,-0.5131,-0.5136,-0.514,-0.5144,-0.5166,-0.5178,-0.5181,-0.5193,-0.5196,-0.5198,-0.5208,-0.5215,-0.5237,-0.5237,-0.524,-0.5241,-0.5262,-0.5262,-0.5262,-0.525,-0.5248,-0.5247,0,0,0,0,0,0,-0.5119,-0.5138,-0.5144,-0.5154,-0.5164,-0.5181,-0.5185,-0.5191,-0.5201,-0.5202,-0.5216,-0.5219,-0.5227,-0.5235,-0.5234,-0.5245,-0.525,-0.5251,-0.524,-0.5239,-0.5238,-0.5236,-0.5245,0,0,0,0,0,-0.5117,-0.5126,-0.5142,-0.5149,-0.5154,-0.5168,-0.5174,-0.5182,-0.5194,-0.5198,-0.5209,-0.522,-0.5228,-0.5234,-0.5244,-0.525,-0.5253,-0.5252,-0.5251,-0.525,-0.525,-0.5253,-0.5252,-0.5261,-0.5261,-0.5261,0,0,-0.5114,-0.5125,-0.513,-0.5147,-0.5156,-0.5164,-0.5172,-0.5181,-0.5187,-0.5199,-0.5209,-0.5217,-0.5229,-0.5237,-0.5241,-0.5244,-0.5248,-0.525,-0.5249,-0.525,-0.5252,-0.5252,-0.5251,-0.5261,-0.5261,-0.5261,0,0,-0.5112,-0.5122,-0.5128,-0.5137,-0.515,-0.5159,-0.5161,-0.5176,-0.5182,-0.5191,-0.5201,-0.5207,-0.5223,-0.5231,-0.5237,-0.5235,-0.5242,-0.5238,-0.5233,-0.5235,-0.5234,-0.5234,-0.5232,-0.5231,-0.5238,-0.5238,-0.5238,0,-0.5106,-0.5119,-0.5131,-0.5138,-0.5145,-0.5156,-0.5162,-0.517,-0.5185,-0.5189,-0.5192,-0.5211,-0.522,-0.5229,-0.5228,-0.5233,-0.5234,-0.5236,-0.5234,-0.5233,-0.5233,-0.5231,-0.5231,-0.5237,-0.5238,-0.5238,-0.5238,0,-0.5111,-0.5119,-0.5122,-0.5137,-0.5144,-0.515,-0.5162,-0.5168,-0.5174,-0.5182,-0.5191,-0.5202,-0.5213,-0.5216,-0.5223,-0.5225,-0.5226,-0.5231,-0.5236,-0.5231,-0.523,-0.5229,-0.5237,-0.5237,-0.5237,-0.5237,0,0,-0.5103,-0.5122,-0.5123,-0.5129,-0.5144,-0.515,-0.5156,-0.5167,-0.5171,-0.518,-0.5185,-0.5197,-0.5201,-0.5208,-0.5216,-0.5218,-0.5214,-0.5223,-0.5223,-0.522,-0.5216,-0.5212,-0.5211,-0.5219,-0.5219,-0.5219,-0.5215,0,-0.5102,-0.5115,-0.5125,-0.5133,-0.514,-0.515,-0.5155,-0.5164,-0.5171,-0.5178,-0.5186,-0.5194,-0.5199,-0.5203,-0.5206,-0.5214,-0.5214,-0.5215,-0.5223,-0.5223,-0.5219,-0.5211,-0.5207,-0.5202,-0.5214,-0.5214,-0.5214,0,-0.5104,-0.5113,-0.5122,-0.5134,-0.5137,-0.5142,-0.5151,-0.5158,-0.5167,-0.5172,-0.5179,-0.5186,-0.5192,-0.5196,-0.5204,-0.5204,-0.5208,-0.5212,-0.5213,-0.5214,-0.5218,-0.5211,-0.5201,-0.52,-0.5214,-0.5214,-0.5214,0,-0.5096,-0.511,-0.5117,-0.5122,-0.5136,-0.5139,-0.5145,-0.5155,-0.516,-0.5168,-0.5171,-0.5179,-0.5184,-0.519,-0.5199,-0.5201,-0.5205,-0.521,-0.5209,-0.5208,-0.5209,-0.5209,-0.52,-0.5212,-0.5212,-0.5212,-0.5212,0,-0.5095,-0.51,-0.5114,-0.5118,-0.5123,-0.5133,-0.5138,-0.5145,-0.5153,-0.5157,-0.5166,-0.5171,-0.5183,-0.5188,-0.5195,-0.5199,-0.5201,-0.5205,-0.5207,-0.5204,-0.5203,-0.5206,-0.5207,-0.5212,-0.5212,-0.5212,-0.5212,0,-0.5088,-0.5097,-0.5105,-0.5117,-0.512,-0.5123,-0.5134,-0.5137,-0.5144,-0.515,-0.5152,-0.5163,-0.517,-0.5179,-0.5189,-0.5193,-0.5196,-0.5199,-0.5193,-0.5194,-0.5191,-0.5191,-0.5183,-0.5182,-0.5196,-0.5196,-0.5196,0,-0.5086,-0.509,-0.5102,-0.5106,-0.5111,-0.5117,-0.5122,-0.5132,-0.5136,-0.5146,-0.5148,-0.5155,-0.5162,-0.5171,-0.518,-0.5186,-0.5189,-0.5186,-0.5191,-0.5187,-0.5188,-0.5188,-0.5187,-0.5185,-0.5185,-0.5185,-0.5185,0,-0.5082,-0.5086,-0.5092,-0.51,-0.5105,-0.5111,-0.5118,-0.5121,-0.5132,-0.5136,-0.5142,-0.5147,-0.5156,-0.5162,-0.517,-0.5175,-0.5181,-0.5183,-0.5183,-0.518,-0.5175,-0.5177,-0.5189,-0.5183,-0.5183,-0.5183,-0.5184,-0.5184,-0.5077,-0.508,-0.5088,-0.5095,-0.51,-0.5106,-0.511,-0.5116,-0.5122,-0.513,-0.5135,-0.5141,-0.5148,-0.5159,-0.5164,-0.5168,-0.5171,-0.5171,-0.5171,-0.517,-0.5169,-0.5175,-0.5169,-0.5169,-0.517,-0.517,-0.517,0,-0.5072,-0.5078,-0.5083,-0.5092,-0.5096,-0.5101,-0.5108,-0.5112,-0.5117,-0.5123,-0.5129,-0.5135,-0.514,-0.5149,-0.5155,-0.5156,-0.5159,-0.5157,-0.5157,-0.5158,-0.5166,-0.5166,-0.5155,-0.5155,-0.5155,-0.5155,-0.5155,-0.5155,-0.507,-0.5075,-0.508,-0.5087,-0.5092,-0.5097,-0.5101,-0.5106,-0.5111,-0.5117,-0.5122,-0.5127,-0.5134,-0.514,-0.5145,-0.5147,-0.5148,-0.5145,-0.5148,-0.5156,-0.5158,-0.5159,-0.5158,-0.5146,-0.5146,-0.5139,-0.5139,-0.5139]}]]